RH
24 27 30 29 29 26 25 24 23 22 17 13 9 6 5 4 3 3 3 3 4 7 8 9 13 15 18 15 20 51 70 61 41 56 42 43 86 100 99 84 73 58 63 89 67
19 21 23 23 20 21 23 23 25 20 14 10 8 7 5 4 3 3 3 4 8 13 13 17 17 19 18 20 17 49 66 61 53 50 57 65 95 98 96 97 67 61 43 98 91
9 10 12 14 18 21 24 28 24 17 13 9 8 5 4 3 3 3 4 7 14 20 19 22 26 24 20 24 24 24 60 74 77 70 84 64 98 99 86 98 70 47 44 87 96
7 9 11 17 24 27 28 28 20 14 11 10 6 4 3 3 3 3 5 10 16 19 21 23 26 30 22 23 33 32 40 89 84 88 92 75 97 98 97 89 62 39 54 58 96
8 10 12 21 26 29 26 21 18 13 12 8 6 4 3 3 3 4 9 14 16 15 15 17 22 32 33 28 40 48 40 77 93 100 91 100 99 98 91 95 69 45 51 76 88
8 9 11 26 30 30 26 20 16 13 10 7 5 4 3 3 4 7 13 16 15 12 10 12 20 28 33 30 38 38 41 58 98 100 97 96 99 99 100 93 78 53 54 82 86
8 10 16 29 31 32 26 19 16 14 8 6 4 3 3 4 6 14 17 16 14 11 10 9 17 22 31 30 33 47 41 56 99 100 98 91 88 87 97 97 97 71 71 76 83
9 12 19 31 32 29 26 20 16 12 8 6 4 3 3 5 11 18 17 14 14 19 14 9 14 19 30 28 30 54 56 52 89 100 99 100 99 99 97 99 87 68 70 91 85
10 13 26 31 28 23 20 20 15 10 7 5 4 3 4 7 14 18 18 23 31 28 24 12 12 17 29 30 29 51 65 52 69 100 100 89 100 100 94 99 98 85 77 83 88
11 16 28 26 23 20 18 19 14 8 6 4 4 3 5 9 20 19 18 29 38 36 31 26 13 16 26 30 30 32 44 49 66 98 94 99 100 99 99 96 98 94 80 74 76
12 24 32 26 21 16 17 21 13 7 6 4 4 4 6 15 22 18 24 46 40 39 41 34 20 17 24 29 28 30 57 64 72 89 91 100 100 100 98 99 96 98 90 95 89
14 28 33 28 21 16 19 19 12 7 6 4 4 4 8 19 20 20 25 42 48 53 58 46 41 21 21 29 30 27 32 58 71 81 89 95 100 100 99 98 94 98 98 94 97
14 28 31 27 24 20 21 16 12 7 5 4 4 6 12 19 20 18 26 43 56 57 65 62 54 34 23 26 31 26 29 43 61 64 74 95 100 100 99 97 92 95 97 91 88
17 30 28 26 24 20 21 14 12 6 4 4 5 7 10 23 20 15 17 49 51 59 70 70 68 41 30 23 28 27 28 32 50 58 57 81 89 97 100 89 87 90 98 98 98
24 32 31 30 26 24 21 16 11 6 3 4 5 7 14 19 20 14 14 55 49 61 71 74 79 64 36 24 25 28 26 32 31 46 51 64 81 92 94 77 89 81 94 99 90
28 33 34 35 34 26 23 15 12 6 4 4 6 10 24 22 20 15 8 31 63 91 75 70 83 83 53 32 26 33 30 30 32 33 44 45 70 85 79 76 91 99 93 97 98
31 37 33 33 33 27 24 15 13 5 4 5 7 10 15 18 18 15 7 14 59 88 71 70 77 98 56 34 40 33 38 46 33 31 34 38 50 67 83 87 97 98 97 98 97
34 36 38 42 39 30 22 15 10 6 4 5 7 12 16 18 18 16 10 8 38 66 88 75 70 80 78 40 46 42 87 43 28 27 31 34 40 46 50 66 96 94 86 96 98
36 38 43 51 45 31 21 15 9 6 4 5 6 14 18 17 17 16 10 8 21 51 64 83 83 82 83 62 47 62 84 76 41 26 31 38 42 37 34 34 55 83 95 97 98
36 45 48 48 45 31 22 13 8 5 4 6 7 12 14 15 14 9 7 7 9 43 58 81 93 87 90 74 39 61 56 89 49 34 30 38 45 38 34 26 26 50 93 98 98
48 47 52 51 45 31 20 14 9 5 4 5 8 12 14 15 14 11 6 5 7 31 59 74 94 94 100 96 43 40 67 84 66 39 30 30 54 40 28 28 24 43 84 100 99
52 50 58 58 44 31 20 14 9 6 4 5 7 13 15 14 15 12 7 5 6 27 53 66 89 100 81 96 71 55 91 100 76 51 31 26 32 53 58 49 44 42 77 94 92
49 52 59 61 44 31 21 14 9 6 5 6 8 13 15 14 13 10 7 4 6 23 58 69 88 100 95 94 76 67 100 100 99 65 35 26 33 81 58 70 64 58 56 88 98
52 53 59 60 43 31 21 15 10 7 6 5 6 11 15 15 12 7 5 4 6 14 57 63 74 93 100 100 83 50 100 99 98 91 56 41 36 96 97 100 94 92 62 77 88
61 61 69 63 41 30 21 14 10 7 6 6 8 11 14 14 12 6 4 5 7 11 56 61 64 62 95 100 95 88 87 100 95 100 100 99 93 93 100 100 100 100 86 77 72
67 71 70 65 42 30 20 14 9 8 6 7 10 13 15 15 13 6 5 8 10 13 59 64 62 54 57 83 100 86 40 96 91 86 84 84 100 100 100 100 100 100 99 81 88
78 76 70 62 44 31 21 14 9 8 7 7 11 15 16 16 14 6 6 12 13 23 66 71 58 57 47 79 100 94 54 54 79 79 100 100 78 89 88 100 100 100 100 97 74
Wind_Speed
35 35 36 38 41 44 45 47 44 47 54 57 61 64 71 76 79 81 67 65 62 53 44 38 37 35 34 35 41 45 55 55 55 54 51 56 54 51 55 55 60 60 62 56 58
33 35 37 40 43 45 46 45 44 50 55 58 64 71 76 80 83 73 69 64 54 44 34 32 33 35 34 33 41 47 53 47 51 53 54 57 56 54 52 51 58 61 64 54 59
35 37 39 42 46 46 47 43 47 53 56 63 70 76 81 84 83 69 68 59 40 32 27 28 28 29 33 32 36 44 48 48 51 56 51 59 49 60 56 54 55 58 59 58 54
38 40 42 45 47 47 46 45 49 54 58 67 73 78 85 84 74 70 63 43 33 30 26 26 25 24 31 29 30 39 47 47 53 55 50 52 50 46 57 57 56 62 60 67 50
41 45 46 46 47 45 44 46 53 56 66 70 77 79 90 84 71 69 47 35 31 27 24 23 22 25 27 29 28 34 44 49 53 53 55 55 49 49 58 57 58 58 60 57 58
45 48 50 46 46 42 47 52 56 59 69 77 82 85 90 78 73 53 36 31 31 25 20 20 22 27 26 29 26 31 43 50 51 52 58 58 53 47 52 57 57 60 61 59 61
47 48 48 46 44 45 50 54 60 65 71 80 84 88 85 72 60 39 32 29 26 22 15 16 23 27 25 30 25 28 39 46 49 50 56 60 60 56 49 58 59 60 58 61 60
49 50 48 45 46 48 51 56 61 67 75 82 84 87 76 64 45 34 30 28 25 17 13 13 22 26 26 29 28 28 35 44 47 49 54 62 52 44 52 59 66 62 61 59 60
50 51 47 46 47 50 55 58 64 70 78 82 85 84 68 55 36 30 29 25 24 20 14 10 20 26 28 29 29 28 34 40 44 47 48 57 52 42 53 63 64 59 56 59 58
51 49 45 46 50 52 55 60 66 71 79 82 82 79 64 43 31 30 28 26 26 20 16 9 13 24 30 29 30 28 31 38 40 48 55 58 52 41 58 75 59 55 60 58 56
50 47 45 47 51 54 58 60 68 74 82 80 80 69 53 39 28 30 26 24 27 22 18 15 7 21 30 28 31 31 31 35 36 47 56 63 50 46 57 67 65 54 59 54 56
49 46 45 48 52 58 61 63 69 73 81 76 74 56 44 30 29 29 25 21 23 24 21 18 8 13 28 30 30 31 29 31 35 45 52 58 53 50 42 59 60 46 51 58 53
49 46 45 46 54 60 62 65 70 75 79 74 70 52 37 28 28 28 21 20 21 23 24 21 13 8 21 30 29 32 29 31 35 41 45 54 56 49 41 51 61 53 48 57 59
49 46 44 49 55 59 64 64 71 75 75 76 62 47 30 26 29 29 21 17 18 20 21 21 16 6 16 28 30 31 31 30 34 40 43 50 51 48 44 54 58 56 43 47 53
47 44 48 53 57 59 63 64 70 75 72 72 59 53 32 26 27 28 21 17 17 15 19 19 18 11 9 24 31 30 33 33 32 37 39 46 45 44 44 57 53 60 58 46 57
45 44 50 56 60 58 62 63 70 73 67 64 54 35 30 29 30 29 21 12 16 13 15 16 17 15 9 16 29 29 33 34 33 35 37 40 46 43 44 49 49 50 66 44 53
44 49 52 55 57 58 60 61 69 69 70 64 48 33 26 27 28 29 25 14 8 10 14 16 13 14 9 11 24 29 30 31 34 35 35 37 44 39 44 42 44 43 57 48 47
45 48 54 56 58 57 57 60 67 70 68 59 45 36 30 27 30 29 25 17 4 8 10 13 11 14 17 6 20 29 26 30 34 36 33 36 39 37 40 43 46 44 54 49 42
45 46 54 56 59 55 55 59 64 68 65 55 45 34 31 33 30 28 26 18 7 5 8 11 10 13 12 7 21 29 30 28 31 33 32 38 37 35 36 37 39 45 42 51 40
45 50 55 55 57 53 54 58 63 66 63 52 41 35 30 30 29 30 28 21 10 5 5 8 10 10 10 9 12 28 33 27 28 33 33 36 34 33 32 37 34 43 43 41 35
52 55 54 56 53 53 53 55 61 65 61 52 42 35 33 31 31 31 27 22 10 5 4 5 7 11 7 10 7 26 30 29 29 33 35 36 33 28 34 34 37 41 43 43 39
52 55 53 54 51 51 51 55 60 63 58 52 44 36 35 34 33 33 28 18 10 10 7 3 6 8 7 8 2 26 32 28 29 30 36 37 37 30 29 34 36 34 43 49 36
50 54 54 52 49 48 48 53 57 61 55 49 44 37 37 36 34 32 33 22 9 14 12 6 1 4 6 6 8 26 36 32 30 33 34 37 39 29 32 29 36 34 40 46 38
50 56 54 50 47 47 49 53 56 59 54 51 46 38 37 38 36 34 29 22 8 14 16 9 5 2 3 1 3 10 39 37 34 33 29 34 42 43 32 35 36 35 37 43 44
52 56 53 49 44 46 47 51 55 56 53 49 45 39 35 36 37 34 28 17 7 11 17 12 8 4 1 2 5 4 42 43 40 28 21 23 26 39 30 33 38 37 35 32 41
53 55 52 46 44 45 47 50 52 54 54 47 41 39 37 37 36 33 25 15 5 10 17 13 9 6 2 3 4 4 20 48 42 33 23 24 25 28 25 23 28 36 37 34 28
53 55 50 45 43 43 46 48 49 51 51 45 38 37 38 37 36 32 23 13 5 7 13 11 9 8 2 4 4 5 14 39 45 37 27 27 28 29 26 23 25 33 35 37 38
Wind_Direction
328 326 325 324 321 320 321 324 324 323 330 334 336 335 336 338 334 329 320 312 305 297 293 276 263 254 248 237 226 222 221 219 212 211 208 210 206 211 214 210 208 211 206 209 209
334 333 330 328 328 327 328 327 325 328 335 338 338 338 338 337 335 327 319 311 302 295 286 273 264 249 243 236 230 221 220 215 209 205 204 205 206 203 205 205 205 208 205 208 206
334 333 331 330 332 333 333 329 329 335 339 341 341 343 341 339 334 325 317 309 302 296 284 268 258 250 236 237 231 221 219 214 208 204 199 205 204 200 207 202 202 205 205 207 204
337 336 334 333 333 337 337 334 334 343 344 343 344 344 344 339 330 324 314 308 302 293 280 266 254 250 233 233 235 224 215 213 209 206 199 198 194 211 210 205 203 205 206 208 206
337 337 337 336 337 341 339 337 340 346 346 345 345 344 345 338 329 322 315 312 308 300 284 261 248 237 236 224 228 219 212 212 208 206 197 190 203 194 205 203 201 204 205 207 207
337 340 339 339 340 342 340 341 345 347 347 348 347 346 343 334 328 320 322 321 316 307 286 255 234 227 229 221 224 221 210 210 208 205 199 196 198 190 199 201 200 202 207 205 207
338 340 339 341 341 341 342 343 348 348 348 350 349 346 341 333 325 326 332 327 328 323 292 243 226 218 224 217 216 219 212 210 208 204 200 196 191 199 191 198 199 199 203 207 208
340 340 340 343 342 342 343 346 350 349 351 351 349 347 338 332 329 336 332 335 332 337 311 253 223 215 217 214 211 213 210 212 210 207 198 198 192 197 201 189 205 204 202 206 207
340 341 344 346 346 346 347 349 352 351 351 349 350 345 338 334 337 338 344 345 349 346 338 272 220 211 210 211 208 208 209 210 210 209 201 195 191 198 203 191 195 202 203 207 206
340 342 345 348 349 351 351 352 352 351 350 350 349 343 339 340 344 343 347 358 1 350 349 310 224 209 206 210 206 209 210 208 209 209 199 195 196 195 204 191 191 200 209 208 207
342 343 345 350 352 353 353 355 352 351 350 350 348 344 342 342 349 347 355 356 355 4 356 347 239 207 204 211 206 203 206 203 205 211 206 198 198 191 205 202 200 195 199 201 203
341 343 344 350 353 355 356 356 356 353 350 349 346 345 342 344 351 353 354 352 1 13 6 1 338 220 206 208 207 203 206 201 200 212 213 206 199 197 203 206 211 209 196 208 198
340 344 345 349 355 356 356 358 354 353 351 349 350 350 347 347 352 356 353 353 356 6 8 5 354 248 211 209 208 204 201 199 200 212 216 205 202 206 198 202 210 209 204 203 209
341 343 346 352 356 357 358 356 354 353 349 352 351 354 355 349 354 358 352 356 355 0 4 4 353 311 222 209 209 201 200 199 198 209 213 212 207 208 198 204 207 204 191 203 199
341 344 350 356 359 358 358 354 353 351 348 353 353 356 360 3 358 359 355 341 347 5 6 3 357 345 249 211 209 199 199 202 197 206 211 214 212 208 203 201 197 200 202 193 205
339 345 350 357 357 357 356 354 351 350 349 351 356 0 356 356 355 358 354 348 349 4 3 10 10 353 295 216 211 197 201 200 198 203 210 209 213 212 203 202 208 212 212 195 198
338 343 348 355 356 356 353 352 348 349 351 354 357 358 354 354 354 355 353 352 349 345 356 358 5 1 339 223 205 198 201 198 197 202 206 205 213 212 212 212 209 213 205 192 198
337 344 349 353 356 354 351 349 350 349 348 355 357 355 356 354 352 354 352 346 327 351 351 355 351 357 13 206 206 193 193 199 201 204 199 202 209 205 212 216 216 215 212 201 200
336 343 349 353 353 351 348 351 349 349 349 353 355 352 350 345 351 351 348 343 323 314 338 356 349 347 346 347 197 195 189 198 199 205 200 203 207 207 212 218 221 222 209 212 210
335 340 347 350 351 348 347 349 347 348 348 354 354 348 347 344 348 348 343 337 320 267 316 351 358 11 6 357 209 198 197 191 196 200 203 204 207 209 216 219 223 227 206 205 212
332 337 344 349 348 347 348 345 346 347 348 351 354 345 343 343 342 345 345 335 307 237 254 327 2 333 341 12 206 191 193 192 196 198 198 205 201 212 222 221 224 225 213 206 208
334 341 343 347 344 347 344 344 346 346 348 350 351 344 341 341 342 340 342 338 302 230 229 246 8 7 9 33 139 185 178 179 192 196 201 206 205 206 208 204 210 218 214 213 204
335 338 343 345 343 343 341 341 342 346 349 349 346 342 339 340 340 342 337 341 295 224 221 220 295 46 70 45 50 183 174 168 169 191 195 201 201 201 206 202 200 200 214 222 212
334 337 341 341 341 338 338 339 341 346 346 345 343 342 339 339 340 340 336 339 295 219 214 209 200 220 103 272 343 183 180 170 164 163 185 201 199 200 181 180 185 187 206 220 217
332 335 338 337 336 335 337 337 339 345 345 343 342 341 340 340 340 340 338 340 298 215 206 207 202 226 251 277 285 198 190 175 170 168 155 169 192 207 187 157 170 172 190 205 223
328 332 334 331 331 333 334 335 340 343 342 342 341 340 339 341 342 340 342 340 293 211 196 200 203 217 264 332 257 247 197 191 186 179 174 176 175 186 200 176 166 172 182 194 198
325 328 330 326 329 331 330 332 338 340 340 339 341 344 341 340 342 342 341 341 307 200 187 197 202 221 281 332 187 220 189 196 198 189 187 164 180 186 188 201 184 172 180 184 196